Regional Weather Roundup
Issued by NWS

Home | Current Version | Previous Version | Text Only | Print | Product List | Glossary Off
Versions: 1 2 3 4 5 6 7 8 9 10 11 12 13 14 15 16 17 18 19 20 21 22 23 24 25 26 27 28 29 30 31 32 33 34 35 36 37 38 39 40 41 42 43 44 45 46 47 48 49 50

000
ASUS45 KBOU 261907
RWRCO

WEATHER ROUNDUP FOR COLORADO
NATIONAL WEATHER SERVICE DENVER/BOULDER CO
100 PM MDT THU MAR 26 2015

NOTE: "FAIR" INDICATES FEW OR NO CLOUDS BELOW 12000 FEET WITH NO
SIGNIFICANT WEATHER AND/OR OBSTRUCTIONS TO VISIBILITY.

COZ001>005-013-030-031-262000-
...NORTHWEST COLORADO...

CITY           SKY/WX    TMP DP  RH WIND       PRES   REMARKS
CRAIG          MOSUNNY   49  24  37 W8        30.34F
HAYDEN         MOSUNNY   43  19  39 NW13      30.33F
MEEKER         MOSUNNY   47  23  38 VRB3      30.34F
MOUNT WERNER   NOT AVBL
STEAMBOAT SPGS MOSUNNY   39  20  47 CALM      30.34F
WALDEN         MOSUNNY   37  21  52 SW12      30.29F
$$

COZ006>008-011-262000-
...WEST CENTRAL VALLEYS...

CITY           SKY/WX    TMP DP  RH WIND       PRES   REMARKS
GRAND JUNCTION SUNNY     53  16  23 VRB3      30.33F
MONTROSE       SUNNY     53  14  21 CALM      30.35F
EAGLE          MOSUNNY   48  18  29 CALM      30.35F
RIFLE          MOSUNNY   52  18  26 SE5       30.33F
DELTA          SUNNY     56  14  19 SW6       30.34F
NUCLA          SUNNY     55  16  21 NW8       30.35F
$$

COZ017>023-064>068-262000-
...SOUTHWEST COLORADO...

CITY           SKY/WX    TMP DP  RH WIND       PRES   REMARKS
DURANGO        SUNNY     53  13  20 VRB3      30.30F
CORTEZ         SUNNY     60  16  18 VRB7      30.29F
PAGOSA SPRINGS SUNNY     50   6  16 SW7       30.31F
TELLURIDE      SUNNY     46  16  29 W9        30.37F
WOLF CREEK PAS SUNNY     32   9  37 W6        30.43R WCI  26
$$

COZ009-010-012-014-032>034-037-058>063-262000-
...CENTRAL COLORADO...

CITY           SKY/WX    TMP DP  RH WIND       PRES   REMARKS
ASPEN          MOSUNNY   43  19  38 N5        30.33F
BUENA VISTA    MOSUNNY   49  11  22 NW24G30   30.22F
COPPER MTN     PTSUNNY   30  14  51 W8G16     30.37R WCI  23
BERTHOUD PASS  FAIR      18  10  73 NW24G35   30.33R HAZE    WCI   0
COTTONWOOD PAS MOSUNNY   46  12  25 CALM      30.29S
GUNNISON       SUNNY     45  16  31 SW5       30.34F
KREMMLING      PTSUNNY   43  18  36 SW6       30.33F
LEADVILLE      MOSUNNY   37  14  38 NW13G20   30.31F
SALIDA         MOSUNNY   51  13  22 N8        30.29F
SUNLIGHT       MOSUNNY   32  19  59 CALM      30.42F
WILKERSON PASS CLOUDY    32  12  43 N9G25     30.33R WCI  24
$$

COZ069>075-262000-
...SAN LUIS VALLEY/SANGRE DE CRISTO MOUNTAINS...

CITY           SKY/WX    TMP DP  RH WIND       PRES   REMARKS
ALAMOSA        SUNNY     49   9  19 VRB3      30.29F
LA VETA PASS   SUNNY     39  18  41 S13G25    30.29F
SAGUACHE       NOT AVBL
$$

COZ035-036-038>040-262000-
...NORTHERN COLORADO FRONT RANGE...

CITY           SKY/WX    TMP DP  RH WIND       PRES   REMARKS
DENVER INTL AP PTSUNNY   55  19  24 W3        30.17F
DMNS CITY PARK   N/A     58  17  20 W3G10     30.15F
AURORA         PTSUNNY   55  18  23 W1        30.18F
FRONT RANGE AP PTSUNNY  N/A N/A N/A MISG        N/A
ERIE MUNI ARPT PTSUNNY   58  15  19 CALM      30.15F
BOULDER MUN AP PTSUNNY   57  21  24 W5        30.15S
CENTENNIAL     PTSUNNY   53  19  26 VRB6      30.18F
BROOMFIELD     PTSUNNY   57  19  23 W10G16    30.17F
FORT COLLINS   PTSUNNY   55  28  35 SE5       30.18F
LONGMONT       PTSUNNY   62  22  21 NE6       30.17F
$$

COZ041-046-047-076>085-087-088-262000-
...PIKES PEAK/PALMER DIVIDE AND SOUTHERN FOOTHILLS...

CITY           SKY/WX    TMP DP  RH WIND       PRES   REMARKS
COLO. SPRINGS  MOSUNNY   53  17  24 NW7       30.20F
A. F. ACADEMY  MOSUNNY   51  17  26 VRB5      30.19F
ELLICOTT       SUNNY    N/A N/A N/A N13       30.19F
FALCON         SUNNY     51  15  23 NW8G16    30.22F
FORT CARSON    SUNNY     53  19  26 S9        30.19F
LIMON          MOSUNNY   53  22  29 N14G29    30.18F
MONUMENT HILL  SUNNY     46  21  36 NW8       30.20F
TRINIDAD       SUNNY     54  18  24 NW7G17    30.23F
$$

COZ042>045-048>051-090-091-262000-
...NORTHEAST COLORADO...

CITY           SKY/WX    TMP DP  RH WIND       PRES   REMARKS
GREELEY ARPT   MOSUNNY   55  27  33 N3        30.16F
AKRON          CLOUDY    55  26  32 N23G30    30.15F
BURLINGTON     PTSUNNY   57  22  25 NW26G33   30.15F
WRAY           PTSUNNY   58  24  26 NW22G32   30.13F
STERLING       PTSUNNY   59  27  29 NW23G33   30.13F
HOLYOKE        PTSUNNY   59  27  29 NW21G31   30.12F
FORT MORGAN    PTSUNNY   56  25  30 W9G21     30.16F
$$

COZ086-089-092>099-262000-
...SOUTHEAST COLORADO...

CITY           SKY/WX    TMP DP  RH WIND       PRES   REMARKS
PUEBLO         SUNNY     55  19  24 VRB5      30.19F
LA JUNTA       SUNNY     60  19  20 NW13      30.19F
LAMAR          MOSUNNY   59  26  28 NW10G21   30.16F
SPRINGFIELD      N/A     58  20  22 NW14      30.19F
$$


USA.gov is the U.S. government's official web portal to all federal, state and local government web resources and services.